Location: Boiro
(42.6475°N, 8.8834°W)
Time: 14:09:25
(UTC+01:00)

Vanguard 3 - Pass Details

Date: 05 December 2021
Orbit: 508 x 3260 km, 33.3° (Epoch: 20 January)

Event Time Altitude Azimuth Distance (km) Brightness Sun altitude
Rises 10:40:15 0° 279° (W) 6,888 11.4 14.5°
Reaches altitude 10° 10:46:02 10° 271° (W) 5,532 11.1 15.2°
Maximum altitude 10:58:21 30° 219° (SW) 3,152 10.5 16.6°
Drops below altitude 10° 11:06:29 10° 162° (SSE) 3,580 12.3 17.4°
Sets 11:09:21 0° 151° (SSE) 4,211 12.6 17.7°
